Time,TemperatureF,DewpointF,PressureIn,WindDirection,WindDirectionDegrees,WindSpeedMPH,WindSpeedGustMPH,Humidity,HourlyPrecipIn,Conditions,Clouds,dailyrainin,SoftwareType,DateUTC
2013-04-16 00:09:00,45.0,38.5,29.99,WSW,247,0.0,7.0,78,0.00,,,0.00,Weather View 32 v70,2013-04-16 07:09:00,
2013-04-16 00:14:00,45.0,38.5,29.99,West,270,0.0,7.0,78,0.00,,,0.00,Weather View 32 v70,2013-04-16 07:14:00,
2013-04-16 00:19:00,45.0,38.5,29.99,SE,135,1.0,7.0,78,0.00,,,0.00,Weather View 32 v70,2013-04-16 07:19:00,
2013-04-16 00:24:00,45.0,38.5,29.99,WSW,247,0.0,9.0,78,0.00,,,0.00,Weather View 32 v70,2013-04-16 07:24:00,
2013-04-16 00:29:00,45.0,38.5,29.99,WNW,292,2.0,9.0,78,0.00,,,0.00,Weather View 32 v70,2013-04-16 07:29:00,
2013-04-16 00:34:00,45.0,38.5,29.99,NE,45,0.0,9.0,78,0.00,,,0.00,Weather View 32 v70,2013-04-16 07:34:00,
2013-04-16 00:39:00,45.0,38.5,29.99,SE,135,1.0,9.0,78,0.00,,,0.00,Weather View 32 v70,2013-04-16 07:39:00,
2013-04-16 00:40:00,45.0,38.5,29.99,SE,135,1.0,9.0,78,0.00,,,0.00,Weather View 32 v70,2013-04-16 07:40:00,
2013-04-16 00:44:00,45.0,38.5,29.99,WSW,247,0.0,9.0,78,0.00,,,0.00,Weather View 32 v70,2013-04-16 07:44:00,
2013-04-16 00:49:00,45.0,39.2,29.99,WSW,247,3.0,9.0,80,0.00,,,0.00,Weather View 32 v70,2013-04-16 07:49:00,
2013-04-16 00:54:00,45.0,38.5,29.99,WSW,247,0.0,9.0,78,0.00,,,0.00,Weather View 32 v70,2013-04-16 07:54:00,
2013-04-16 00:59:00,45.0,38.5,29.99,SW,225,0.0,9.0,78,0.00,,,0.00,Weather View 32 v70,2013-04-16 07:59:00,
2013-04-16 01:04:00,45.0,38.5,29.99,WSW,247,0.0,9.0,78,0.00,,,0.00,Weather View 32 v70,2013-04-16 08:04:00,
2013-04-16 01:09:00,45.0,38.5,29.99,SW,225,0.0,9.0,78,0.00,,,0.00,Weather View 32 v70,2013-04-16 08:09:00,
2013-04-16 01:19:00,44.0,37.6,30.01,SW,225,0.0,9.0,78,0.00,,,0.00,Weather View 32 v70,2013-04-16 08:19:00,
2013-04-16 01:24:00,45.0,39.5,30.00,SW,225,4.0,7.0,81,0.00,,,0.00,Weather View 32 v70,2013-04-16 08:24:00,
2013-04-16 01:29:00,45.0,38.5,30.00,SW,225,0.0,9.0,78,0.00,,,0.00,Weather View 32 v70,2013-04-16 08:29:00,
2013-04-16 01:33:00,45.0,38.5,30.00,WNW,292,0.0,9.0,78,0.00,,,0.00,Weather View 32 v70,2013-04-16 08:33:00,
2013-04-16 01:38:00,45.0,38.5,30.00,NNE,22,0.0,9.0,78,0.00,,,0.00,Weather View 32 v70,2013-04-16 08:38:00,
2013-04-16 01:41:00,45.0,38.5,30.00,NNE,22,0.0,9.0,78,0.00,,,0.00,Weather View 32 v70,2013-04-16 08:41:00,
2013-04-16 01:43:00,44.0,37.6,30.00,SW,225,0.0,9.0,78,0.00,,,0.00,Weather View 32 v70,2013-04-16 08:43:00,
2013-04-16 01:48:00,44.0,37.6,30.01,West,270,0.0,9.0,78,0.00,,,0.00,Weather View 32 v70,2013-04-16 08:48:00,
2013-04-16 01:53:00,44.0,37.6,30.01,WSW,247,0.0,9.0,78,0.00,,,0.00,Weather View 32 v70,2013-04-16 08:53:00,
2013-04-16 02:00:00,44.0,37.6,30.01,NNE,22,0.0,9.0,78,0.00,,,0.00,Weather View 32 v70,2013-04-16 09:00:00,
2013-04-16 02:05:00,44.0,37.6,30.01,SW,225,0.0,9.0,78,0.00,,,0.00,Weather View 32 v70,2013-04-16 09:05:00,
2013-04-16 02:10:00,44.0,37.6,30.01,West,270,0.0,9.0,78,0.00,,,0.00,Weather View 32 v70,2013-04-16 09:10:00,
2013-04-16 02:15:00,44.0,37.6,30.01,ENE,67,0.0,9.0,78,0.00,,,0.00,Weather View 32 v70,2013-04-16 09:15:00,
2013-04-16 02:20:00,44.0,38.5,30.01,SW,225,1.0,9.0,81,0.00,,,0.00,Weather View 32 v70,2013-04-16 09:20:00,
2013-04-16 02:25:00,44.0,37.6,30.01,WSW,247,0.0,9.0,78,0.00,,,0.00,Weather View 32 v70,2013-04-16 09:25:00,
2013-04-16 02:29:00,44.0,37.6,30.01,WSW,247,0.0,9.0,78,0.00,,,0.00,Weather View 32 v70,2013-04-16 09:29:00,
2013-04-16 02:34:00,44.0,37.6,30.01,NW,315,0.0,7.0,78,0.00,,,0.00,Weather View 32 v70,2013-04-16 09:34:00,
2013-04-16 02:39:00,44.0,37.6,30.01,WSW,247,0.0,7.0,78,0.00,,,0.00,Weather View 32 v70,2013-04-16 09:39:00,
2013-04-16 02:42:00,44.0,37.6,30.01,WSW,247,0.0,7.0,78,0.00,,,0.00,Weather View 32 v70,2013-04-16 09:42:00,
2013-04-16 02:44:00,44.0,37.6,30.01,WSW,247,0.0,10.0,78,0.00,,,0.00,Weather View 32 v70,2013-04-16 09:44:00,
2013-04-16 02:49:00,44.0,37.6,30.01,WSW,247,0.0,10.0,78,0.00,,,0.00,Weather View 32 v70,2013-04-16 09:49:00,
2013-04-16 02:54:00,44.0,38.2,30.01,SW,225,0.0,10.0,80,0.00,,,0.00,Weather View 32 v70,2013-04-16 09:54:00,
2013-04-16 02:59:00,44.0,37.6,30.01,West,270,0.0,10.0,78,0.00,,,0.00,Weather View 32 v70,2013-04-16 09:59:00,
2013-04-16 03:09:00,44.0,37.9,30.01,West,270,0.0,10.0,79,0.00,,,0.00,Weather View 32 v70,2013-04-16 10:09:00,
2013-04-16 03:14:00,44.0,37.6,30.01,WSW,247,0.0,10.0,78,0.00,,,0.00,Weather View 32 v70,2013-04-16 10:14:00,
2013-04-16 03:19:00,44.0,37.6,30.01,West,270,0.0,10.0,78,0.00,,,0.00,Weather View 32 v70,2013-04-16 10:19:00,
2013-04-16 03:24:00,44.0,37.6,30.01,NNE,22,0.0,10.0,78,0.00,,,0.00,Weather View 32 v70,2013-04-16 10:24:00,
2013-04-16 03:29:00,44.0,38.2,30.01,SW,225,0.0,10.0,80,0.00,,,0.00,Weather View 32 v70,2013-04-16 10:29:00,
2013-04-16 03:34:00,44.0,37.6,30.01,NNW,337,0.0,10.0,78,0.00,,,0.00,Weather View 32 v70,2013-04-16 10:34:00,
2013-04-16 03:39:00,43.0,36.6,30.01,WSW,247,0.0,10.0,78,0.00,,,0.00,Weather View 32 v70,2013-04-16 10:39:00,
2013-04-16 03:42:00,43.0,36.6,30.01,WSW,247,0.0,10.0,78,0.00,,,0.00,Weather View 32 v70,2013-04-16 10:42:00,
2013-04-16 03:44:00,43.0,37.2,30.02,SE,135,0.0,10.0,80,0.00,,,0.00,Weather View 32 v70,2013-04-16 10:44:00,
2013-04-16 03:49:00,43.0,37.2,30.02,West,270,0.0,6.0,80,0.00,,,0.00,Weather View 32 v70,2013-04-16 10:49:00,
2013-04-16 03:54:00,43.0,36.9,30.02,WSW,247,0.0,6.0,79,0.00,,,0.00,Weather View 32 v70,2013-04-16 10:54:00,
2013-04-16 03:59:00,43.0,36.9,30.02,WSW,247,0.0,6.0,79,0.00,,,0.00,Weather View 32 v70,2013-04-16 10:59:00,
2013-04-16 04:04:00,43.0,37.9,30.02,SE,135,0.0,6.0,82,0.00,,,0.00,Weather View 32 v70,2013-04-16 11:04:00,
2013-04-16 04:09:00,43.0,36.9,30.02,SW,225,0.0,6.0,79,0.00,,,0.00,Weather View 32 v70,2013-04-16 11:09:00,
2013-04-16 04:14:00,43.0,36.9,30.03,SW,225,0.0,6.0,79,0.00,,,0.00,Weather View 32 v70,2013-04-16 11:14:00,
2013-04-16 04:19:00,43.0,36.9,30.02,SW,225,0.0,6.0,79,0.00,,,0.00,Weather View 32 v70,2013-04-16 11:19:00,
2013-04-16 04:24:00,43.0,36.9,30.02,SE,135,0.0,4.0,79,0.00,,,0.00,Weather View 32 v70,2013-04-16 11:24:00,
2013-04-16 04:29:00,43.0,37.2,30.03,SE,135,0.0,4.0,80,0.00,,,0.00,Weather View 32 v70,2013-04-16 11:29:00,
2013-04-16 04:34:00,43.0,37.2,30.03,SE,135,0.0,4.0,80,0.00,,,0.00,Weather View 32 v70,2013-04-16 11:34:00,
2013-04-16 04:39:00,42.0,36.9,30.04,SW,225,0.0,2.0,82,0.00,,,0.00,Weather View 32 v70,2013-04-16 11:39:00,
2013-04-16 04:43:00,42.0,36.9,30.04,SW,225,0.0,2.0,82,0.00,,,0.00,Weather View 32 v70,2013-04-16 11:43:00,
2013-04-16 04:44:00,42.0,36.3,30.04,SW,225,0.0,2.0,80,0.00,,,0.00,Weather View 32 v70,2013-04-16 11:44:00,
2013-04-16 04:49:00,41.0,35.3,30.04,SW,225,0.0,2.0,80,0.00,,,0.00,Weather View 32 v70,2013-04-16 11:49:00,
2013-04-16 04:54:00,41.0,35.3,30.04,ESE,112,0.0,2.0,80,0.00,,,0.00,Weather View 32 v70,2013-04-16 11:54:00,
2013-04-16 04:59:00,42.0,36.3,30.04,SW,225,0.0,2.0,80,0.00,,,0.00,Weather View 32 v70,2013-04-16 11:59:00,
2013-04-16 05:04:00,42.0,36.3,30.04,NNE,22,0.0,3.0,80,0.00,,,0.00,Weather View 32 v70,2013-04-16 12:04:00,
2013-04-16 05:09:00,42.0,36.3,30.04,NW,315,0.0,3.0,80,0.00,,,0.00,Weather View 32 v70,2013-04-16 12:09:00,
2013-04-16 05:14:00,44.0,38.5,30.03,SW,225,0.0,6.0,81,0.00,,,0.00,Weather View 32 v70,2013-04-16 12:14:00,
2013-04-16 05:19:00,44.0,37.9,30.03,SE,135,0.0,6.0,79,0.00,,,0.00,Weather View 32 v70,2013-04-16 12:19:00,
2013-04-16 05:24:00,43.0,36.9,30.03,ESE,112,0.0,6.0,79,0.00,,,0.00,Weather View 32 v70,2013-04-16 12:24:00,
2013-04-16 05:29:00,43.0,37.2,30.04,ESE,112,0.0,6.0,80,0.00,,,0.00,Weather View 32 v70,2013-04-16 12:29:00,
2013-04-16 05:34:00,42.0,36.3,30.04,ESE,112,0.0,6.0,80,0.00,,,0.00,Weather View 32 v70,2013-04-16 12:34:00,
2013-04-16 05:39:00,41.0,35.3,30.05,ESE,112,0.0,6.0,80,0.00,,,0.00,Weather View 32 v70,2013-04-16 12:39:00,
2013-04-16 05:43:00,41.0,35.3,30.05,ESE,112,0.0,6.0,80,0.00,,,0.00,Weather View 32 v70,2013-04-16 12:43:00,
2013-04-16 05:44:00,41.0,35.3,30.06,ESE,112,0.0,6.0,80,0.00,,,0.00,Weather View 32 v70,2013-04-16 12:44:00,
2013-04-16 05:49:00,41.0,35.9,30.06,SE,135,0.0,6.0,82,0.00,,,0.00,Weather View 32 v70,2013-04-16 12:49:00,
2013-04-16 05:54:00,41.0,35.3,30.06,WSW,247,0.0,6.0,80,0.00,,,0.00,Weather View 32 v70,2013-04-16 12:54:00,
2013-04-16 05:59:00,41.0,35.0,30.06,WSW,247,0.0,6.0,79,0.00,,,0.00,Weather View 32 v70,2013-04-16 12:59:00,
2013-04-16 06:04:00,41.0,35.0,30.06,WSW,247,0.0,6.0,79,0.00,,,0.00,Weather View 32 v70,2013-04-16 13:04:00,
2013-04-16 06:09:00,41.0,35.0,30.06,WSW,247,0.0,6.0,79,0.00,,,0.00,Weather View 32 v70,2013-04-16 13:09:00,
2013-04-16 06:14:00,41.0,33.7,30.07,WSW,247,0.0,2.0,75,0.00,,,0.00,Weather View 32 v70,2013-04-16 13:14:00,
2013-04-16 06:19:00,42.0,31.8,30.06,WSW,247,0.0,0.0,67,0.00,,,0.00,Weather View 32 v70,2013-04-16 13:19:00,
2013-04-16 06:24:00,42.0,30.3,30.06,WSW,247,0.0,0.0,63,0.00,,,0.00,Weather View 32 v70,2013-04-16 13:24:00,
2013-04-16 06:29:00,42.0,30.3,30.06,WSW,247,0.0,0.0,63,0.00,,,0.00,Weather View 32 v70,2013-04-16 13:29:00,
2013-04-16 06:34:00,42.0,30.3,30.07,WSW,247,0.0,0.0,63,0.00,,,0.00,Weather View 32 v70,2013-04-16 13:34:00,
2013-04-16 06:39:00,43.0,26.6,30.06,WSW,247,0.0,0.0,52,0.00,,,0.00,Weather View 32 v70,2013-04-16 13:39:00,
2013-04-16 06:43:00,43.0,26.6,30.06,WSW,247,0.0,0.0,52,0.00,,,0.00,Weather View 32 v70,2013-04-16 13:43:00,
2013-04-16 06:49:00,42.0,27.9,30.06,WSW,247,0.0,0.0,57,0.00,,,0.00,Weather View 32 v70,2013-04-16 13:49:00,
2013-04-16 06:54:00,42.0,27.4,30.06,WSW,247,0.0,0.0,56,0.00,,,0.00,Weather View 32 v70,2013-04-16 13:54:00,
2013-04-16 07:00:00,43.0,-51.5,30.06,WSW,247,0.0,0.0,1,0.00,,,0.00,Weather View 32 v70,2013-04-16 14:00:00,
2013-04-16 07:05:00,43.0,27.9,30.06,WSW,247,0.0,0.0,55,0.00,,,0.00,Weather View 32 v70,2013-04-16 14:05:00,
2013-04-16 07:10:00,44.0,28.4,30.06,WSW,247,0.0,0.0,54,0.00,,,0.00,Weather View 32 v70,2013-04-16 14:10:00,
2013-04-16 07:15:00,45.0,28.4,30.06,WSW,247,0.0,0.0,52,0.00,,,0.00,Weather View 32 v70,2013-04-16 14:15:00,
2013-04-16 07:19:00,46.0,29.3,30.06,WSW,247,0.0,0.0,52,0.00,,,0.00,Weather View 32 v70,2013-04-16 14:19:00,
2013-04-16 07:24:00,47.0,29.8,30.06,SW,225,0.0,0.0,51,0.00,,,0.00,Weather View 32 v70,2013-04-16 14:24:00,
2013-04-16 07:29:00,48.0,30.7,30.05,SW,225,0.0,0.0,51,0.00,,,0.00,Weather View 32 v70,2013-04-16 14:29:00,
2013-04-16 07:34:00,49.0,-47.8,30.05,SW,225,0.0,0.0,1,0.00,,,0.00,Weather View 32 v70,2013-04-16 14:34:00,
2013-04-16 07:39:00,49.0,31.1,30.05,SW,225,0.0,0.0,50,0.00,,,0.00,Weather View 32 v70,2013-04-16 14:39:00,
2013-04-16 07:45:00,50.0,32.1,30.05,East,90,0.0,0.0,50,0.00,,,0.00,Weather View 32 v70,2013-04-16 14:45:00,
2013-04-16 07:54:00,52.0,33.4,30.05,NE,45,0.0,0.0,49,0.00,,,0.00,Weather View 32 v70,2013-04-16 14:54:00,
2013-04-16 07:59:00,53.0,34.3,30.05,NW,315,0.0,2.0,49,0.00,,,0.00,Weather View 32 v70,2013-04-16 14:59:00,
2013-04-16 08:09:00,54.0,-44.7,30.05,WNW,292,1.0,5.0,1,0.00,,,0.00,Weather View 32 v70,2013-04-16 15:09:00,
2013-04-16 08:14:00,54.0,34.7,30.05,NNW,337,0.0,5.0,48,0.00,,,0.00,Weather View 32 v70,2013-04-16 15:14:00,
2013-04-16 08:19:00,54.0,34.7,30.05,NNE,22,0.0,5.0,48,0.00,,,0.00,Weather View 32 v70,2013-04-16 15:19:00,
2013-04-16 08:24:00,54.0,34.7,30.05,North,360,0.0,6.0,48,0.00,,,0.00,Weather View 32 v70,2013-04-16 15:24:00,
2013-04-16 08:29:00,54.0,34.7,30.05,North,360,0.0,6.0,48,0.00,,,0.00,Weather View 32 v70,2013-04-16 15:29:00,
2013-04-16 08:34:00,55.0,35.6,30.05,WSW,247,3.0,6.0,48,0.00,,,0.00,Weather View 32 v70,2013-04-16 15:34:00,
2013-04-16 08:39:00,55.0,35.6,30.05,SW,225,0.0,6.0,48,0.00,,,0.00,Weather View 32 v70,2013-04-16 15:39:00,
2013-04-16 08:44:00,56.0,-43.5,30.05,NNW,337,0.0,6.0,1,0.00,,,0.00,Weather View 32 v70,2013-04-16 15:44:00,
2013-04-16 08:49:00,55.0,35.1,30.05,WNW,292,2.0,7.0,47,0.00,,,0.00,Weather View 32 v70,2013-04-16 15:49:00,
2013-04-16 08:54:00,55.0,35.6,30.05,NW,315,0.0,7.0,48,0.00,,,0.00,Weather View 32 v70,2013-04-16 15:54:00,
2013-04-16 08:59:00,56.0,36.0,30.05,WNW,292,5.0,7.0,47,0.00,,,0.00,Weather View 32 v70,2013-04-16 15:59:00,
2013-04-16 09:04:00,56.0,36.0,30.05,SW,225,0.0,7.0,47,0.00,,,0.00,Weather View 32 v70,2013-04-16 16:04:00,
2013-04-16 09:09:00,56.0,36.0,30.05,East,90,0.0,9.0,47,0.00,,,0.00,Weather View 32 v70,2013-04-16 16:09:00,
2013-04-16 09:14:00,56.0,36.0,30.05,WSW,247,1.0,9.0,47,0.00,,,0.00,Weather View 32 v70,2013-04-16 16:14:00,
2013-04-16 09:19:00,56.0,-43.5,30.05,SW,225,4.0,9.0,1,0.00,,,0.00,Weather View 32 v70,2013-04-16 16:19:00,
2013-04-16 09:24:00,56.0,36.0,30.05,North,360,0.0,9.0,47,0.00,,,0.00,Weather View 32 v70,2013-04-16 16:24:00,
2013-04-16 09:29:00,56.0,36.0,30.05,WNW,292,3.0,9.0,47,0.00,,,0.00,Weather View 32 v70,2013-04-16 16:29:00,
2013-04-16 09:34:00,56.0,36.0,30.05,West,270,0.0,9.0,47,0.00,,,0.00,Weather View 32 v70,2013-04-16 16:34:00,
2013-04-16 09:39:00,57.0,36.9,30.05,NW,315,0.0,9.0,47,0.00,,,0.00,Weather View 32 v70,2013-04-16 16:39:00,
2013-04-16 09:44:00,57.0,36.9,30.05,West,270,4.0,9.0,47,0.00,,,0.00,Weather View 32 v70,2013-04-16 16:44:00,
2013-04-16 09:45:00,57.0,36.9,30.05,West,270,4.0,9.0,47,0.00,,,0.00,Weather View 32 v70,2013-04-16 16:45:00,